| time (UTC) | temp F | wind direction | speed MPH | gust MPH | rain 1hr in | rain 24hr in | rain mn in | humidity % | barometer mb |
| 20260505083039 | 43 | 0 | 0.0 | 3.0 | 0.00 | 0.43 | 0.00 | 93 | 1012.1 |
| 20260505081548 | 44 | 0 | 0.0 | 0.0 | 0.00 | 0.43 | 0.00 | 92 | 1012.2 |
| 20260505080039 | 44 | 94 | 0.0 | 3.0 | 0.00 | 0.43 | 0.00 | 92 | 1011.9 |
| 20260505074530 | 43 | 242 | 2.0 | 4.0 | 0.01 | 0.43 | 0.00 | 92 | 1011.5 |
| 20260505073030 | 43 | 228 | 2.0 | 4.0 | 0.02 | 0.43 | 0.00 | 92 | 1012.3 |
| 20260505071531 | 43 | 0 | 0.0 | 0.0 | 0.02 | 0.43 | 0.00 | 92 | 1012.4 |
| 20260505070031 | 43 | 0 | 0.0 | 4.0 | 0.02 | 0.43 | 0.00 | 91 | 1012.1 |
| 20260505064533 | 43 | 146 | 2.0 | 6.0 | 0.01 | 0.42 | 0.42 | 92 | 1011.7 |
| 20260505063039 | 43 | 179 | 3.0 | 5.0 | 0.00 | 0.41 | 0.41 | 92 | 1011.4 |
| 20260505061534 | 43 | 138 | 2.0 | 6.0 | 0.01 | 0.41 | 0.41 | 92 | 1011.5 |
| 20260505060032 | 43 | 147 | 3.0 | 7.0 | 0.01 | 0.41 | 0.41 | 92 | 1011.4 |
| 20260505054532 | 43 | 208 | 3.0 | 6.0 | 0.01 | 0.41 | 0.41 | 92 | 1011.5 |
| 20260505053032 | 43 | 180 | 3.0 | 5.0 | 0.01 | 0.41 | 0.41 | 92 | 1011.6 |
| 20260505051532 | 43 | 0 | 0.0 | 3.0 | 0.00 | 0.40 | 0.40 | 92 | 1011.9 |
| 20260505041531 | 43 | 177 | 0.0 | 7.0 | 0.04 | 0.40 | 0.40 | 92 | 1011.5 |
| 20260505040038 | 44 | 352 | 5.0 | 11.0 | 0.11 | 0.40 | 0.40 | 91 | 1011.6 |
| 20260505034532 | 45 | 74 | 1.0 | 4.0 | 0.11 | 0.40 | 0.40 | 91 | 1011.0 |
| 20260505033040 | 44 | 217 | 7.0 | 14.0 | 0.10 | 0.39 | 0.39 | 91 | 1009.9 |
| 20260505031529 | 44 | 219 | 5.0 | 8.0 | 0.06 | 0.35 | 0.35 | 91 | 1011.4 |
| 20260505030029 | 45 | 0 | 1.0 | 5.0 | 0.00 | 0.29 | 0.29 | 90 | 1011.6 |
| 20260505024552 | 45 | 0 | 0.0 | 5.0 | 0.01 | 0.29 | 0.29 | 91 | 1011.5 |
| 20260505023037 | 45 | 72 | 1.0 | 9.0 | 0.04 | 0.29 | 0.29 | 90 | 1010.9 |
| 20260505021544 | 45 | 104 | 3.0 | 10.0 | 0.10 | 0.29 | 0.29 | 89 | 1010.7 |
| 20260505020030 | 46 | 273 | 1.0 | 22.0 | 0.15 | 0.29 | 0.29 | 83 | 1010.0 |
| 20260505014531 | 46 | 203 | 9.0 | 16.0 | 0.20 | 0.28 | 0.28 | 86 | 1009.6 |
| 20260505013029 | 45 | 238 | 5.0 | 13.0 | 0.20 | 0.24 | 0.24 | 89 | 1012.1 |
| 20260505011547 | 45 | 188 | 10.0 | 16.0 | 0.16 | 0.19 | 0.19 | 88 | 1011.7 |
| 20260505010032 | 45 | 231 | 10.0 | 16.0 | 0.12 | 0.14 | 0.14 | 87 | 1011.7 |
| 20260505004540 | 46 | 216 | 6.0 | 14.0 | 0.05 | 0.07 | 0.07 | 85 | 1011.9 |
| 20260505003029 | 47 | 213 | 8.0 | 14.0 | 0.02 | 0.04 | 0.04 | 82 | 1010.8 |
| 20260505001531 | 49 | 138 | 5.0 | 9.0 | 0.01 | 0.03 | 0.03 | 81 | 1010.3 |
| 20260505000029 | 50 | 200 | 7.0 | 15.0 | 0.00 | 0.02 | 0.02 | 76 | 1009.9 |
| 20260504234530 | 51 | 210 | 9.0 | 17.0 | 0.00 | 0.02 | 0.02 | 70 | 1009.7 |
| 20260504233030 | 52 | 182 | 6.0 | 16.0 | 0.00 | 0.02 | 0.02 | 67 | 1010.0 |
| 20260504231532 | 54 | 202 | 9.0 | 15.0 | 0.00 | 0.02 | 0.02 | 66 | 1010.0 |
| 20260504230032 | 53 | 186 | 6.0 | 16.0 | 0.00 | 0.02 | 0.02 | 64 | 1010.2 |
| 20260504224529 | 54 | 198 | 9.0 | 22.0 | 0.00 | 0.02 | 0.02 | 62 | 1010.1 |
| 20260504223036 | 56 | 198 | 6.0 | 12.0 | 0.00 | 0.02 | 0.02 | 56 | 1010.3 |
| 20260504221536 | 58 | 169 | 6.0 | 11.0 | 0.00 | 0.02 | 0.02 | 58 | 1010.2 |
| 20260504220030 | 55 | 198 | 6.0 | 12.0 | 0.00 | 0.02 | 0.02 | 62 | 1010.4 |
| 20260504214532 | 55 | 209 | 4.0 | 13.0 | 0.00 | 0.02 | 0.02 | 65 | 1010.6 |
| 20260504213032 | 55 | 192 | 8.0 | 18.0 | 0.00 | 0.02 | 0.02 | 63 | 1011.0 |
| 20260504211529 | 56 | 219 | 9.0 | 19.0 | 0.00 | 0.02 | 0.02 | 63 | 1011.5 |
| 20260504210029 | 55 | 146 | 7.0 | 12.0 | 0.01 | 0.02 | 0.02 | 67 | 1011.7 |
| 20260504204547 | 54 | 188 | 7.0 | 15.0 | 0.01 | 0.02 | 0.02 | 75 | 1011.4 |
| 20260504203033 | 51 | 214 | 11.0 | 17.0 | 0.01 | 0.02 | 0.02 | 84 | 1011.6 |
| 20260504201529 | 49 | 233 | 11.0 | 20.0 | 0.01 | 0.02 | 0.02 | 81 | 1011.8 |
| 20260504200036 | 51 | 190 | 10.0 | 16.0 | 0.00 | 0.01 | 0.01 | 77 | 1011.9 |
| 20260504194537 | 52 | 200 | 4.0 | 8.0 | 0.01 | 0.01 | 0.01 | 75 | 1012.0 |
| 20260504193031 | 51 | 123 | 1.0 | 6.0 | 0.01 | 0.01 | 0.01 | 82 | 1012.1 |
| 20260504191536 | 51 | 107 | 0.0 | 7.0 | 0.01 | 0.01 | 0.01 | 82 | 1012.0 |
| 20260504190036 | 51 | 119 | 3.0 | 8.0 | 0.01 | 0.01 | 0.01 | 81 | 1012.3 |
| 20260504184535 | 50 | 117 | 0.0 | 4.0 | 0.00 | 0.00 | 0.00 | 80 | 1012.2 |
| 20260504183032 | 50 | 142 | 3.0 | 7.0 | 0.00 | 0.00 | 0.00 | 80 | 1012.2 |
| 20260504181529 | 50 | 138 | 2.0 | 5.0 | 0.00 | 0.00 | 0.00 | 82 | 1012.2 |
| 20260504180030 | 51 | 0 | 0.0 | 5.0 | 0.00 | 0.00 | 0.00 | 79 | 1012.0 |
| 20260504174532 | 51 | 291 | 6.0 | 11.0 | 0.00 | 0.00 | 0.00 | 76 | 1011.9 |
| 20260504173031 | 50 | 315 | 0.0 | 5.0 | 0.00 | 0.00 | 0.00 | 77 | 1012.1 |
| 20260504171533 | 51 | 29 | 2.0 | 6.0 | 0.00 | 0.00 | 0.00 | 68 | 1012.3 |